Gauley at Summersville (cfs) [ USA-WVR ]

Edit Gauge

Current Conditions

Reading of "n/a" = frozen gauge or gauge error.
Reading Trend Type Updated
471 cfs -4 cfs/hr Flow 00h28m

Station Description

AW Gauge ID: 8515
Source: virtual
Station: 8515
Enabled yes
Description:StreamTeam Member: Matt Muir The virtual Gauley gauge is based on the rating table published by the USGS in Oct 2003. Funding to update the rating table is no longer available. Discharge values calculated by this virtual gauge are thus calculated based on channel bed morphology as of 2003.
Calculation:$g = $gauge[1434]->getValue(GMETRIC_STAGE,0); if ($g >= 8.9) { $x=(-0.0344*pow($g,5))+(2.6808*pow($g,4))-(77.748*pow($g,3))+(1150.7*pow($g,2))-(7873.3*$g)+19890; } elseif ($g >= 7.0) { $x=(69.822*pow($g,2))-(656.23*$g)+1354.5; } elseif ($g >= 6.5) { $x=(171.43*pow($g,2))-(2104.1*$g)+6474; } else { $x=40; } $flow = $x;
Data is courtesy of AW's Stream Team program. This data is calculated based on other gauges and information provided by the Stream Team. This data, and any river data, should be used with caution.

Information

Flow

Gauge History

Times listed in GMT 24h, ET and PT hours provided for convenience Graphs in GMT. Readings of "n/a" constitute a frozen gauge or gauge error.
Reading Updated (GMT) Eastern Pacific Comment
470.95 12/16/2017 10:42:08 Dec 16 05:42 am Dec 16 2:42 am
475.25 12/16/2017 09:42:24 Dec 16 04:42 am Dec 16 1:42 am
470.95 12/16/2017 08:42:40 Dec 16 03:42 am Dec 16 12:42 am
475.25 12/16/2017 07:40:48 Dec 16 02:40 am Dec 15 11:40 pm
470.95 12/16/2017 06:41:04 Dec 16 01:41 am Dec 15 10:41 pm
470.95 12/16/2017 05:41:20 Dec 16 12:41 am Dec 15 9:41 pm
475.25 12/16/2017 04:41:36 Dec 15 11:41 pm Dec 15 8:41 pm
470.95 12/16/2017 03:41:52 Dec 15 10:41 pm Dec 15 7:41 pm
470.95 12/16/2017 02:42:08 Dec 15 09:42 pm Dec 15 6:42 pm
470.95 12/16/2017 01:42:24 Dec 15 08:42 pm Dec 15 5:42 pm
470.95 12/16/2017 00:42:40 Dec 15 07:42 pm Dec 15 4:42 pm
470.95 12/15/2017 23:40:48 Dec 15 06:40 pm Dec 15 3:40 pm
475.25 12/15/2017 22:41:04 Dec 15 05:41 pm Dec 15 2:41 pm
470.95 12/15/2017 21:41:20 Dec 15 04:41 pm Dec 15 1:41 pm
466.67 12/15/2017 20:41:36 Dec 15 03:41 pm Dec 15 12:41 pm
470.95 12/15/2017 19:41:52 Dec 15 02:41 pm Dec 15 11:41 am
470.95 12/15/2017 18:42:08 Dec 15 01:42 pm Dec 15 10:42 am
470.95 12/15/2017 17:42:24 Dec 15 12:42 pm Dec 15 9:42 am
475.25 12/15/2017 16:42:40 Dec 15 11:42 am Dec 15 8:42 am
475.25 12/15/2017 15:40:48 Dec 15 10:40 am Dec 15 7:40 am
428.77 12/15/2017 13:41:20 Dec 15 08:41 am Dec 15 5:41 am
432.92 12/15/2017 12:41:36 Dec 15 07:41 am Dec 15 4:41 am
432.92 12/15/2017 11:41:52 Dec 15 06:41 am Dec 15 3:41 am
432.92 12/15/2017 10:42:08 Dec 15 05:42 am Dec 15 2:42 am
432.92 12/15/2017 09:42:24 Dec 15 04:42 am Dec 15 1:42 am
428.77 12/15/2017 08:42:40 Dec 15 03:42 am Dec 15 12:42 am
428.77 12/15/2017 07:40:48 Dec 15 02:40 am Dec 14 11:40 pm
428.77 12/15/2017 06:41:04 Dec 15 01:41 am Dec 14 10:41 pm
428.77 12/15/2017 05:41:20 Dec 15 12:41 am Dec 14 9:41 pm
428.77 12/15/2017 04:41:36 Dec 14 11:41 pm Dec 14 8:41 pm
428.77 12/15/2017 03:41:52 Dec 14 10:41 pm Dec 14 7:41 pm
428.77 12/15/2017 02:42:08 Dec 14 09:42 pm Dec 14 6:42 pm
432.92 12/15/2017 01:42:24 Dec 14 08:42 pm Dec 14 5:42 pm
428.77 12/14/2017 23:40:48 Dec 14 06:40 pm Dec 14 3:40 pm
432.92 12/14/2017 22:41:04 Dec 14 05:41 pm Dec 14 2:41 pm
432.92 12/14/2017 21:41:20 Dec 14 04:41 pm Dec 14 1:41 pm
428.77 12/14/2017 20:41:36 Dec 14 03:41 pm Dec 14 12:41 pm
432.92 12/14/2017 19:41:52 Dec 14 02:41 pm Dec 14 11:41 am
428.77 12/14/2017 18:42:08 Dec 14 01:42 pm Dec 14 10:42 am
432.92 12/14/2017 17:42:24 Dec 14 12:42 pm Dec 14 9:42 am
428.77 12/14/2017 16:42:40 Dec 14 11:42 am Dec 14 8:42 am
432.92 12/14/2017 15:40:48 Dec 14 10:40 am Dec 14 7:40 am
432.92 12/14/2017 14:41:04 Dec 14 09:41 am Dec 14 6:41 am
428.77 12/14/2017 13:41:20 Dec 14 08:41 am Dec 14 5:41 am
428.77 12/14/2017 12:41:36 Dec 14 07:41 am Dec 14 4:41 am
432.92 12/14/2017 11:41:52 Dec 14 06:41 am Dec 14 3:41 am
428.77 12/14/2017 10:42:08 Dec 14 05:42 am Dec 14 2:42 am
432.92 12/14/2017 09:42:24 Dec 14 04:42 am Dec 14 1:42 am
428.77 12/14/2017 08:42:40 Dec 14 03:42 am Dec 14 12:42 am
428.77 12/14/2017 07:40:48 Dec 14 02:40 am Dec 13 11:40 pm
428.77 12/14/2017 06:41:04 Dec 14 01:41 am Dec 13 10:41 pm
432.92 12/14/2017 05:41:20 Dec 14 12:41 am Dec 13 9:41 pm
432.92 12/14/2017 04:41:36 Dec 13 11:41 pm Dec 13 8:41 pm
428.77 12/14/2017 03:41:52 Dec 13 10:41 pm Dec 13 7:41 pm
428.77 12/14/2017 02:42:08 Dec 13 09:42 pm Dec 13 6:42 pm
428.77 12/14/2017 01:42:24 Dec 13 08:42 pm Dec 13 5:42 pm
428.77 12/14/2017 00:42:40 Dec 13 07:42 pm Dec 13 4:42 pm
424.63 12/13/2017 23:40:48 Dec 13 06:40 pm Dec 13 3:40 pm
432.92 12/13/2017 22:41:04 Dec 13 05:41 pm Dec 13 2:41 pm
432.92 12/13/2017 21:41:20 Dec 13 04:41 pm Dec 13 1:41 pm
416.38 12/13/2017 19:41:52 Dec 13 02:41 pm Dec 13 11:41 am
412.29 12/13/2017 18:42:08 Dec 13 01:42 pm Dec 13 10:42 am
416.38 12/13/2017 17:42:24 Dec 13 12:42 pm Dec 13 9:42 am
412.29 12/13/2017 16:42:40 Dec 13 11:42 am Dec 13 8:42 am
416.38 12/13/2017 15:40:48 Dec 13 10:40 am Dec 13 7:40 am
416.38 12/13/2017 14:41:04 Dec 13 09:41 am Dec 13 6:41 am
412.29 12/13/2017 13:41:20 Dec 13 08:41 am Dec 13 5:41 am
379.99 12/13/2017 12:41:36 Dec 13 07:41 am Dec 13 4:41 am
379.99 12/13/2017 11:41:52 Dec 13 06:41 am Dec 13 3:41 am
379.99 12/13/2017 10:42:08 Dec 13 05:42 am Dec 13 2:42 am
379.99 12/13/2017 09:42:24 Dec 13 04:42 am Dec 13 1:42 am
379.99 12/13/2017 08:42:40 Dec 13 03:42 am Dec 13 12:42 am
376.02 12/13/2017 07:40:48 Dec 13 02:40 am Dec 12 11:40 pm
379.99 12/13/2017 06:41:04 Dec 13 01:41 am Dec 12 10:41 pm
376.02 12/13/2017 05:41:20 Dec 13 12:41 am Dec 12 9:41 pm
379.99 12/13/2017 04:41:36 Dec 12 11:41 pm Dec 12 8:41 pm
379.99 12/13/2017 03:41:52 Dec 12 10:41 pm Dec 12 7:41 pm
379.99 12/13/2017 02:42:08 Dec 12 09:42 pm Dec 12 6:42 pm
383.98 12/13/2017 01:42:24 Dec 12 08:42 pm Dec 12 5:42 pm
379.99 12/13/2017 00:42:40 Dec 12 07:42 pm Dec 12 4:42 pm
379.99 12/12/2017 23:40:48 Dec 12 06:40 pm Dec 12 3:40 pm
376.02 12/12/2017 22:41:04 Dec 12 05:41 pm Dec 12 2:41 pm
379.99 12/12/2017 21:41:20 Dec 12 04:41 pm Dec 12 1:41 pm
379.99 12/12/2017 20:41:36 Dec 12 03:41 pm Dec 12 12:41 pm
379.99 12/12/2017 19:41:52 Dec 12 02:41 pm Dec 12 11:41 am
376.02 12/12/2017 18:42:08 Dec 12 01:42 pm Dec 12 10:42 am
383.98 12/12/2017 17:42:24 Dec 12 12:42 pm Dec 12 9:42 am
379.99 12/12/2017 16:42:40 Dec 12 11:42 am Dec 12 8:42 am
379.99 12/12/2017 15:40:48 Dec 12 10:40 am Dec 12 7:40 am
376.02 12/12/2017 14:41:04 Dec 12 09:41 am Dec 12 6:41 am
376.02 12/12/2017 13:41:20 Dec 12 08:41 am Dec 12 5:41 am
379.99 12/12/2017 12:41:36 Dec 12 07:41 am Dec 12 4:41 am
379.99 12/12/2017 11:41:52 Dec 12 06:41 am Dec 12 3:41 am
379.99 12/12/2017 10:42:08 Dec 12 05:42 am Dec 12 2:42 am
379.99 12/12/2017 09:42:24 Dec 12 04:42 am Dec 12 1:42 am
376.02 12/12/2017 08:42:40 Dec 12 03:42 am Dec 12 12:42 am
379.99 12/12/2017 07:40:48 Dec 12 02:40 am Dec 11 11:40 pm
379.99 12/12/2017 06:41:04 Dec 12 01:41 am Dec 11 10:41 pm
379.99 12/12/2017 05:41:20 Dec 12 12:41 am Dec 11 9:41 pm
379.99 12/12/2017 04:41:36 Dec 11 11:41 pm Dec 11 8:41 pm
376.02 12/12/2017 03:41:52 Dec 11 10:41 pm Dec 11 7:41 pm
379.99 12/12/2017 02:42:08 Dec 11 09:42 pm Dec 11 6:42 pm
379.99 12/12/2017 01:42:24 Dec 11 08:42 pm Dec 11 5:42 pm
383.98 12/12/2017 00:42:40 Dec 11 07:42 pm Dec 11 4:42 pm
379.99 12/11/2017 23:40:48 Dec 11 06:40 pm Dec 11 3:40 pm
379.99 12/11/2017 22:41:04 Dec 11 05:41 pm Dec 11 2:41 pm
379.99 12/11/2017 21:41:20 Dec 11 04:41 pm Dec 11 1:41 pm
379.99 12/11/2017 20:41:36 Dec 11 03:41 pm Dec 11 12:41 pm
404.13 12/11/2017 19:41:52 Dec 11 02:41 pm Dec 11 11:41 am
404.13 12/11/2017 18:42:08 Dec 11 01:42 pm Dec 11 10:42 am
408.20 12/11/2017 17:42:24 Dec 11 12:42 pm Dec 11 9:42 am
466.67 12/11/2017 16:42:40 Dec 11 11:42 am Dec 11 8:42 am
462.40 12/11/2017 15:40:48 Dec 11 10:40 am Dec 11 7:40 am
462.40 12/11/2017 14:41:04 Dec 11 09:41 am Dec 11 6:41 am
470.95 12/11/2017 13:41:20 Dec 11 08:41 am Dec 11 5:41 am
692.86 12/11/2017 12:41:36 Dec 11 07:41 am Dec 11 4:41 am
692.86 12/11/2017 11:41:52 Dec 11 06:41 am Dec 11 3:41 am
697.83 12/11/2017 10:42:08 Dec 11 05:42 am Dec 11 2:42 am
692.86 12/11/2017 09:42:24 Dec 11 04:42 am Dec 11 1:42 am
692.86 12/11/2017 08:42:40 Dec 11 03:42 am Dec 11 12:42 am
697.83 12/11/2017 07:40:48 Dec 11 02:40 am Dec 10 11:40 pm
692.86 12/11/2017 06:41:04 Dec 11 01:41 am Dec 10 10:41 pm
692.86 12/11/2017 05:41:20 Dec 11 12:41 am Dec 10 9:41 pm
692.86 12/11/2017 04:41:36 Dec 10 11:41 pm Dec 10 8:41 pm
697.83 12/11/2017 03:41:52 Dec 10 10:41 pm Dec 10 7:41 pm
692.86 12/11/2017 02:42:08 Dec 10 09:42 pm Dec 10 6:42 pm
692.86 12/11/2017 01:42:24 Dec 10 08:42 pm Dec 10 5:42 pm
697.83 12/11/2017 00:42:40 Dec 10 07:42 pm Dec 10 4:42 pm
697.83 12/10/2017 23:40:48 Dec 10 06:40 pm Dec 10 3:40 pm
697.83 12/10/2017 22:41:04 Dec 10 05:41 pm Dec 10 2:41 pm
692.86 12/10/2017 21:41:20 Dec 10 04:41 pm Dec 10 1:41 pm
692.86 12/10/2017 20:41:36 Dec 10 03:41 pm Dec 10 12:41 pm
697.83 12/10/2017 19:41:52 Dec 10 02:41 pm Dec 10 11:41 am
697.83 12/10/2017 18:42:08 Dec 10 01:42 pm Dec 10 10:42 am
697.83 12/10/2017 17:42:24 Dec 10 12:42 pm Dec 10 9:42 am
697.83 12/10/2017 16:42:40 Dec 10 11:42 am Dec 10 8:42 am
692.86 12/10/2017 15:40:48 Dec 10 10:40 am Dec 10 7:40 am
479.55 12/10/2017 14:41:04 Dec 10 09:41 am Dec 10 6:41 am
479.55 12/10/2017 13:41:20 Dec 10 08:41 am Dec 10 5:41 am
483.88 12/10/2017 12:41:36 Dec 10 07:41 am Dec 10 4:41 am
479.55 12/10/2017 11:41:52 Dec 10 06:41 am Dec 10 3:41 am
479.55 12/10/2017 10:42:08 Dec 10 05:42 am Dec 10 2:42 am
479.55 12/10/2017 09:42:24 Dec 10 04:42 am Dec 10 1:42 am
479.55 12/10/2017 08:42:40 Dec 10 03:42 am Dec 10 12:42 am
479.55 12/10/2017 07:40:48 Dec 10 02:40 am Dec 9 11:40 pm
479.55 12/10/2017 06:41:04 Dec 10 01:41 am Dec 9 10:41 pm
483.88 12/10/2017 05:41:20 Dec 10 12:41 am Dec 9 9:41 pm
479.55 12/10/2017 04:41:36 Dec 9 11:41 pm Dec 9 8:41 pm
483.88 12/10/2017 03:41:52 Dec 9 10:41 pm Dec 9 7:41 pm
479.55 12/10/2017 02:42:08 Dec 9 09:42 pm Dec 9 6:42 pm
479.55 12/10/2017 01:42:24 Dec 9 08:42 pm Dec 9 5:42 pm
483.88 12/10/2017 00:42:40 Dec 9 07:42 pm Dec 9 4:42 pm
479.55 12/09/2017 23:40:48 Dec 9 06:40 pm Dec 9 3:40 pm
479.55 12/09/2017 22:41:04 Dec 9 05:41 pm Dec 9 2:41 pm
479.55 12/09/2017 21:41:20 Dec 9 04:41 pm Dec 9 1:41 pm
479.55 12/09/2017 20:41:36 Dec 9 03:41 pm Dec 9 12:41 pm
479.55 12/09/2017 19:41:52 Dec 9 02:41 pm Dec 9 11:41 am
479.55 12/09/2017 18:42:08 Dec 9 01:42 pm Dec 9 10:42 am
466.67 12/09/2017 17:42:24 Dec 9 12:42 pm Dec 9 9:42 am
432.92 12/09/2017 16:42:40 Dec 9 11:42 am Dec 9 8:42 am
432.92 12/09/2017 15:40:48 Dec 9 10:40 am Dec 9 7:40 am
424.63 12/09/2017 14:41:04 Dec 9 09:41 am Dec 9 6:41 am
329.42 12/09/2017 13:41:20 Dec 9 08:41 am Dec 9 5:41 am
333.23 12/09/2017 12:41:36 Dec 9 07:41 am Dec 9 4:41 am
333.23 12/09/2017 11:41:52 Dec 9 06:41 am Dec 9 3:41 am
329.42 12/09/2017 10:42:08 Dec 9 05:42 am Dec 9 2:42 am
329.42 12/09/2017 09:42:24 Dec 9 04:42 am Dec 9 1:42 am
333.23 12/09/2017 08:42:40 Dec 9 03:42 am Dec 9 12:42 am
329.42 12/09/2017 07:40:48 Dec 9 02:40 am Dec 8 11:40 pm
333.23 12/09/2017 06:41:04 Dec 9 01:41 am Dec 8 10:41 pm
333.23 12/09/2017 05:41:20 Dec 9 12:41 am Dec 8 9:41 pm
333.23 12/09/2017 04:41:36 Dec 8 11:41 pm Dec 8 8:41 pm
333.23 12/09/2017 03:41:52 Dec 8 10:41 pm Dec 8 7:41 pm
333.23 12/09/2017 02:42:08 Dec 8 09:42 pm Dec 8 6:42 pm
333.23 12/09/2017 01:42:24 Dec 8 08:42 pm Dec 8 5:42 pm
333.23 12/09/2017 00:42:40 Dec 8 07:42 pm Dec 8 4:42 pm
333.23 12/08/2017 23:40:48 Dec 8 06:40 pm Dec 8 3:40 pm
333.23 12/08/2017 22:41:04 Dec 8 05:41 pm Dec 8 2:41 pm
333.23 12/08/2017 21:41:20 Dec 8 04:41 pm Dec 8 1:41 pm
333.23 12/08/2017 20:41:36 Dec 8 03:41 pm Dec 8 12:41 pm
601.17 12/08/2017 19:41:52 Dec 8 02:41 pm Dec 8 11:41 am
702.81 12/08/2017 18:42:08 Dec 8 01:42 pm Dec 8 10:42 am
702.81 12/08/2017 17:42:24 Dec 8 12:42 pm Dec 8 9:42 am
702.81 12/08/2017 16:42:40 Dec 8 11:42 am Dec 8 8:42 am
702.81 12/08/2017 15:40:48 Dec 8 10:40 am Dec 8 7:40 am
702.81 12/08/2017 14:41:04 Dec 8 09:41 am Dec 8 6:41 am
707.80 12/08/2017 13:41:20 Dec 8 08:41 am Dec 8 5:41 am
753.37 12/08/2017 12:41:36 Dec 8 07:41 am Dec 8 4:41 am
763.65 12/08/2017 11:41:52 Dec 8 06:41 am Dec 8 3:41 am
758.50 12/08/2017 10:42:08 Dec 8 05:42 am Dec 8 2:42 am
763.65 12/08/2017 09:42:24 Dec 8 04:42 am Dec 8 1:42 am
753.37 12/08/2017 08:42:40 Dec 8 03:42 am Dec 8 12:42 am
758.50 12/08/2017 07:40:48 Dec 8 02:40 am Dec 7 11:40 pm
758.50 12/08/2017 06:41:04 Dec 8 01:41 am Dec 7 10:41 pm
758.50 12/08/2017 05:41:20 Dec 8 12:41 am Dec 7 9:41 pm
758.50 12/08/2017 04:41:36 Dec 7 11:41 pm Dec 7 8:41 pm
758.50 12/08/2017 03:41:52 Dec 7 10:41 pm Dec 7 7:41 pm
753.37 12/08/2017 02:42:08 Dec 7 09:42 pm Dec 7 6:42 pm
758.50 12/08/2017 01:42:24 Dec 7 08:42 pm Dec 7 5:42 pm
763.65 12/08/2017 00:42:40 Dec 7 07:42 pm Dec 7 4:42 pm
758.50 12/07/2017 23:40:48 Dec 7 06:40 pm Dec 7 3:40 pm
753.37 12/07/2017 22:41:04 Dec 7 05:41 pm Dec 7 2:41 pm
758.50 12/07/2017 21:41:20 Dec 7 04:41 pm Dec 7 1:41 pm
758.50 12/07/2017 20:41:36 Dec 7 03:41 pm Dec 7 12:41 pm
758.50 12/07/2017 19:41:52 Dec 7 02:41 pm Dec 7 11:41 am
763.65 12/07/2017 18:42:08 Dec 7 01:42 pm Dec 7 10:42 am
753.37 12/07/2017 17:42:24 Dec 7 12:42 pm Dec 7 9:42 am
758.50 12/07/2017 16:42:40 Dec 7 11:42 am Dec 7 8:42 am
753.37 12/07/2017 15:40:48 Dec 7 10:40 am Dec 7 7:40 am
758.50 12/07/2017 14:41:04 Dec 7 09:41 am Dec 7 6:41 am
717.83 12/07/2017 13:41:20 Dec 7 08:41 am Dec 7 5:41 am
404.13 12/07/2017 12:41:36 Dec 7 07:41 am Dec 7 4:41 am
404.13 12/07/2017 11:41:52 Dec 7 06:41 am Dec 7 3:41 am
404.13 12/07/2017 10:42:08 Dec 7 05:42 am Dec 7 2:42 am
400.07 12/07/2017 09:42:24 Dec 7 04:42 am Dec 7 1:42 am
404.13 12/07/2017 08:42:40 Dec 7 03:42 am Dec 7 12:42 am
404.13 12/07/2017 07:40:48 Dec 7 02:40 am Dec 6 11:40 pm
400.07 12/07/2017 06:41:04 Dec 7 01:41 am Dec 6 10:41 pm
400.07 12/07/2017 05:41:20 Dec 7 12:41 am Dec 6 9:41 pm
404.13 12/07/2017 04:41:36 Dec 6 11:41 pm Dec 6 8:41 pm
404.13 12/07/2017 03:41:52 Dec 6 10:41 pm Dec 6 7:41 pm
404.13 12/07/2017 02:42:08 Dec 6 09:42 pm Dec 6 6:42 pm
404.13 12/07/2017 01:42:24 Dec 6 08:42 pm Dec 6 5:42 pm
400.07 12/07/2017 00:42:40 Dec 6 07:42 pm Dec 6 4:42 pm
404.13 12/06/2017 23:40:48 Dec 6 06:40 pm Dec 6 3:40 pm
400.07 12/06/2017 22:41:04 Dec 6 05:41 pm Dec 6 2:41 pm
400.07 12/06/2017 21:41:20 Dec 6 04:41 pm Dec 6 1:41 pm
404.13 12/06/2017 20:41:36 Dec 6 03:41 pm Dec 6 12:41 pm
404.13 12/06/2017 19:41:52 Dec 6 02:41 pm Dec 6 11:41 am
364.18 12/06/2017 18:42:08 Dec 6 01:42 pm Dec 6 10:42 am
344.73 12/06/2017 17:42:24 Dec 6 12:42 pm Dec 6 9:42 am
344.73 12/06/2017 16:42:40 Dec 6 11:42 am Dec 6 8:42 am
340.88 12/06/2017 15:40:48 Dec 6 10:40 am Dec 6 7:40 am
340.88 12/06/2017 14:41:04 Dec 6 09:41 am Dec 6 6:41 am
344.73 12/06/2017 13:41:20 Dec 6 08:41 am Dec 6 5:41 am
340.88 12/06/2017 12:41:36 Dec 6 07:41 am Dec 6 4:41 am
340.88 12/06/2017 11:41:52 Dec 6 06:41 am Dec 6 3:41 am
340.88 12/06/2017 10:42:08 Dec 6 05:42 am Dec 6 2:42 am
344.73 12/06/2017 09:42:24 Dec 6 04:42 am Dec 6 1:42 am
344.73 12/06/2017 08:42:40 Dec 6 03:42 am Dec 6 12:42 am
340.88 12/06/2017 07:40:48 Dec 6 02:40 am Dec 5 11:40 pm
344.73 12/06/2017 06:41:04 Dec 6 01:41 am Dec 5 10:41 pm
340.88 12/06/2017 05:41:20 Dec 6 12:41 am Dec 5 9:41 pm
340.88 12/06/2017 04:41:36 Dec 5 11:41 pm Dec 5 8:41 pm
340.88 12/06/2017 03:41:52 Dec 5 10:41 pm Dec 5 7:41 pm
340.88 12/06/2017 02:42:08 Dec 5 09:42 pm Dec 5 6:42 pm
340.88 12/06/2017 01:42:24 Dec 5 08:42 pm Dec 5 5:42 pm
344.73 12/06/2017 00:42:40 Dec 5 07:42 pm Dec 5 4:42 pm
340.88 12/05/2017 23:40:48 Dec 5 06:40 pm Dec 5 3:40 pm
340.88 12/05/2017 22:41:04 Dec 5 05:41 pm Dec 5 2:41 pm
340.88 12/05/2017 21:41:20 Dec 5 04:41 pm Dec 5 1:41 pm
340.88 12/05/2017 20:41:36 Dec 5 03:41 pm Dec 5 12:41 pm
344.73 12/05/2017 19:41:52 Dec 5 02:41 pm Dec 5 11:41 am
340.88 12/05/2017 18:42:08 Dec 5 01:42 pm Dec 5 10:42 am
340.88 12/05/2017 17:42:24 Dec 5 12:42 pm Dec 5 9:42 am
340.88 12/05/2017 16:42:40 Dec 5 11:42 am Dec 5 8:42 am
344.73 12/05/2017 15:40:48 Dec 5 10:40 am Dec 5 7:40 am
344.73 12/05/2017 14:41:04 Dec 5 09:41 am Dec 5 6:41 am
591.82 12/04/2017 15:40:48 Dec 4 10:40 am Dec 4 7:40 am
591.82 12/04/2017 14:41:04 Dec 4 09:41 am Dec 4 6:41 am
596.49 12/04/2017 13:41:20 Dec 4 08:41 am Dec 4 5:41 am
596.49 12/04/2017 12:41:36 Dec 4 07:41 am Dec 4 4:41 am
591.82 12/04/2017 11:41:52 Dec 4 06:41 am Dec 4 3:41 am
587.16 12/04/2017 10:42:08 Dec 4 05:42 am Dec 4 2:42 am
591.82 12/04/2017 09:42:24 Dec 4 04:42 am Dec 4 1:42 am
596.49 12/04/2017 08:42:40 Dec 4 03:42 am Dec 4 12:42 am
591.82 12/04/2017 07:40:48 Dec 4 02:40 am Dec 3 11:40 pm
591.82 12/04/2017 06:41:04 Dec 4 01:41 am Dec 3 10:41 pm
591.82 12/04/2017 05:41:20 Dec 4 12:41 am Dec 3 9:41 pm
591.82 12/04/2017 04:41:36 Dec 3 11:41 pm Dec 3 8:41 pm
591.82 12/04/2017 03:41:52 Dec 3 10:41 pm Dec 3 7:41 pm
591.82 12/04/2017 02:42:08 Dec 3 09:42 pm Dec 3 6:42 pm
596.49 12/04/2017 01:42:24 Dec 3 08:42 pm Dec 3 5:42 pm
587.16 12/04/2017 00:42:40 Dec 3 07:42 pm Dec 3 4:42 pm
596.49 12/03/2017 23:40:48 Dec 3 06:40 pm Dec 3 3:40 pm
591.82 12/03/2017 22:41:04 Dec 3 05:41 pm Dec 3 2:41 pm
587.16 12/03/2017 21:41:20 Dec 3 04:41 pm Dec 3 1:41 pm
591.82 12/03/2017 20:41:36 Dec 3 03:41 pm Dec 3 12:41 pm
596.49 12/03/2017 19:41:52 Dec 3 02:41 pm Dec 3 11:41 am
587.16 12/03/2017 18:42:08 Dec 3 01:42 pm Dec 3 10:42 am
591.82 12/03/2017 17:42:24 Dec 3 12:42 pm Dec 3 9:42 am
587.16 12/03/2017 16:42:40 Dec 3 11:42 am Dec 3 8:42 am
591.82 12/03/2017 15:40:48 Dec 3 10:40 am Dec 3 7:40 am
591.82 12/03/2017 14:41:04 Dec 3 09:41 am Dec 3 6:41 am
591.82 12/03/2017 13:41:20 Dec 3 08:41 am Dec 3 5:41 am
591.82 12/03/2017 12:41:36 Dec 3 07:41 am Dec 3 4:41 am
591.82 12/03/2017 11:41:52 Dec 3 06:41 am Dec 3 3:41 am
591.82 12/03/2017 10:42:08 Dec 3 05:42 am Dec 3 2:42 am
591.82 12/03/2017 09:42:24 Dec 3 04:42 am Dec 3 1:42 am
591.82 12/03/2017 08:42:40 Dec 3 03:42 am Dec 3 12:42 am
591.82 12/03/2017 07:40:48 Dec 3 02:40 am Dec 2 11:40 pm
591.82 12/03/2017 06:41:04 Dec 3 01:41 am Dec 2 10:41 pm
591.82 12/03/2017 05:41:20 Dec 3 12:41 am Dec 2 9:41 pm
596.49 12/03/2017 04:41:36 Dec 2 11:41 pm Dec 2 8:41 pm
591.82 12/03/2017 03:41:52 Dec 2 10:41 pm Dec 2 7:41 pm
591.82 12/03/2017 02:42:08 Dec 2 09:42 pm Dec 2 6:42 pm
591.82 12/03/2017 01:42:24 Dec 2 08:42 pm Dec 2 5:42 pm
591.82 12/03/2017 00:42:40 Dec 2 07:42 pm Dec 2 4:42 pm
591.82 12/02/2017 23:40:48 Dec 2 06:40 pm Dec 2 3:40 pm
591.82 12/02/2017 22:41:04 Dec 2 05:41 pm Dec 2 2:41 pm

Report - Reports of Related Gauges

Reports give the public a chance to report on river conditions throughout the country as well as log the history of a river.

Reports

When River/Gauge Subject Level Reporter
8y205d23h13m Gauley at Summersville (cfs) [WV] Account of 05/26/09 245 cfs Ryan Groth

Linked Reaches

Click a heading to sort. Hover over a heading for help.
River Name/Section Class Level running? Updated
Gauley [WV] 7 (Upper). Summersville Dam to Mason Branch IV-V 471 cfs
-4 cfs/hr
R0-
Lower Runnable
00h28m
Gauley [WV] 9 (Lower). Bucklick Branch to Swiss III-IV(V) 589 cfs
0 cfs/hr
L3-
Below Recom.
01h10m

Associated Gauges

Disclaimer Data Sources

GAULEY RIVER BELOW SUMMERSVILLE DAM, WV (AW#1434)

7.77 ft 00h26m